Milton, FL

6:39 AM CST on December 11, 2016 (GMT -0600)
Whiting Field Naval Air Station (North)

Weather History for KNSE - March, 2014

Change the Weather History Date:

Sunday, March 30, 2014

  Actual Average Record
Temperature  
Mean Temperature 57 °F -  
Max Temperature 71 °F 72 °F 84 °F (2015)
Min Temperature 43 °F 51 °F 43 °F (2014)
Degree Days  
Heating Degree Days 8    
Growing Degree Days 7 (Base 50)    
Moisture  
Dew Point 39 °F    
Average Humidity 59    
Maximum Humidity 86    
Minimum Humidity 27    
Precipitation  
Precipitation 0.00 in - - ()
Sea Level Pressure  
Sea Level Pressure 30.13 in    
Wind  
Wind Speed 7 mph (NNW)    
Max Wind Speed 12 mph    
Max Gust Speed 18 mph    
Visibility 10 miles    
Events      
Averages and records for this station are not official NWS values.
T = Trace of Precipitation, MM = Missing Value Source: NWS Daily Summary

Daily Weather History Graph

Daily Weather History Graph

Search for Another Location

Airport or City:

Trip Planner

Search our weather history database for the weather conditions in past years. The results will help you decide how hot, cold, wet, or windy it might be!

Date:

Astronomy

Mar. 30, 2014 Rise Set
Actual Time 6:39 AM CDT 7:05 PM CDT
Civil Twilight 6:15 AM CDT 7:30 PM CDT
Nautical Twilight 5:47 AM CDT 7:58 PM CDT
Astronomical Twilight 5:18 AM CDT 8:27 PM CDT
Moon 6:24 AM CDT (3/30) 7:15 PM CDT (3/30)
Length of Visible Light 13h 14m
Length of Day
12h 26m
Waning Crescent, 0% of the Moon is Illuminated
Mar 30
Waning Crescent
Mar 30
New
Apr 7
First Quarter
Apr 15
Full
Apr 22
Last Quarter

Hourly Weather History & Observations

Time (CDT) Temp. Windchill Dew Point Humidity Pressure Visibility Wind Dir Wind Speed Gust Speed Precip Events Conditions
12:56 AM 51.1 °F - 41.0 °F 68% 30.12 in 10.0 mi NNW 5.8 mph - N/A   Clear
1:56 AM 50.0 °F - 39.9 °F 68% 30.13 in 10.0 mi NNW 5.8 mph - N/A   Clear
2:56 AM 46.9 °F - 39.9 °F 77% 30.12 in 10.0 mi NNW 5.8 mph - N/A   Clear
3:56 AM 46.0 °F 42.5 °F 39.0 °F 76% 30.10 in 10.0 mi NNW 6.9 mph - N/A   Clear
4:56 AM 45.0 °F 41.8 °F 37.9 °F 76% 30.11 in 9.0 mi NNW 5.8 mph - N/A   Clear
5:56 AM 44.1 °F 39.0 °F 37.9 °F 79% 30.14 in 8.0 mi NNW 9.2 mph - N/A   Clear
6:56 AM 43.0 °F 38.2 °F 37.0 °F 80% 30.16 in 6.0 mi NNW 8.1 mph - N/A   Haze
7:56 AM 46.0 °F 41.0 °F 37.9 °F 73% 30.19 in 7.0 mi NNW 10.4 mph 16.1 mph N/A   Clear
8:56 AM 48.0 °F - 39.0 °F 71% 30.20 in 8.0 mi NNW 11.5 mph 17.3 mph N/A   Clear
9:56 AM 52.0 °F - 39.0 °F 61% 30.21 in 9.0 mi NNW 11.5 mph - N/A   Clear
10:56 AM 55.9 °F - 37.9 °F 51% 30.20 in 10.0 mi NNW 9.2 mph - N/A   Clear
11:56 AM 61.0 °F - 37.0 °F 41% 30.17 in 10.0 mi NNW 9.2 mph 18.4 mph N/A   Clear
12:56 PM 64.0 °F - 36.0 °F 35% 30.16 in 10.0 mi NW 8.1 mph 17.3 mph N/A   Clear
1:56 PM 66.9 °F - 35.1 °F 31% 30.14 in 10.0 mi Variable 3.5 mph - N/A   Clear
2:56 PM 69.1 °F - 37.0 °F 31% 30.12 in 10.0 mi NW 9.2 mph - N/A   Clear
3:56 PM 71.1 °F - 35.1 °F 27% 30.09 in 10.0 mi NW 9.2 mph - N/A   Clear
4:56 PM 70.0 °F - 36.0 °F 29% 30.08 in 10.0 mi NNW 8.1 mph - N/A   Mostly Cloudy
5:56 PM 70.0 °F - 36.0 °F 29% 30.09 in 10.0 mi NW 9.2 mph - N/A   Mostly Cloudy
6:56 PM 62.1 °F - 37.9 °F 41% 30.10 in 10.0 mi NW 4.6 mph - N/A   Mostly Cloudy
7:56 PM 55.9 °F - 41.0 °F 57% 30.11 in 10.0 mi WNW 3.5 mph - N/A   Mostly Cloudy
8:56 PM 50.0 °F - 42.1 °F 74% 30.12 in 10.0 mi WNW 3.5 mph - N/A   Scattered Clouds
9:56 PM 48.0 °F - 42.1 °F 80% 30.12 in 10.0 mi NW 4.6 mph - N/A   Scattered Clouds
10:56 PM 48.0 °F - 44.1 °F 86% 30.12 in 10.0 mi NNW 4.6 mph - N/A   Clear
11:56 PM 45.0 °F - 39.9 °F 82% 30.11 in 10.0 mi Calm Calm - 0.00 in   Clear